$DATE,$TIME,DM0600B,DM0602B,DM0604B,DM0614B,DM0616B,DM0618B,DM0624B,DM0628B,DM0630B,DM0634B,DM0606B,DM0608B,DM0610B
12/09/94,00:00:00,52,32,45,35,0,47,45,85,57,0,9,7,7
12/09/94,00:05:00,51,32,35,38,0,47,45,86,61,0,9,7,7
12/09/94,00:10:00,53,32,40,38,0,44,41,86,61,0,9,6,7
12/09/94,00:15:00,57,30,48,39,0,41,39,86,72,0,9,6,7
12/09/94,00:20:00,57,31,43,40,0,40,38,85,62,0,9,6,7
12/09/94,00:25:00,51,27,49,39,0,39,38,85,62,0,8,6,7
12/09/94,00:30:00,56,36,43,36,0,39,38,86,61,0,9,6,7
12/09/94,00:35:00,57,30,43,42,0,39,37,86,61,0,8,6,7
12/09/94,00:40:00,52,30,39,40,0,38,36,87,61,0,8,6,8
12/09/94,00:45:00,55,30,40,40,0,41,39,86,61,0,8,6,8
12/09/94,00:50:00,54,34,48,35,0,54,51,86,61,0,8,6,8
12/09/94,00:55:00,57,33,37,38,0,60,57,86,63,0,9,6,7
12/09/94,01:00:00,51,29,42,36,0,64,60,86,62,0,9,6,7
12/09/94,01:05:00,53,35,37,29,0,60,58,86,62,0,9,6,7
12/09/94,01:10:00,52,27,41,35,0,63,61,86,57,0,8,6,7
12/09/94,01:15:00,51,34,37,34,0,59,57,86,56,0,8,6,7
12/09/94,01:20:00,46,35,34,31,0,66,63,86,56,0,8,6,7
12/09/94,01:25:00,46,35,29,31,0,64,62,86,57,0,9,6,7
12/09/94,01:30:00,49,29,37,32,0,74,71,86,56,0,9,6,7
12/09/94,01:35:00,51,39,34,34,0,60,58,85,59,0,8,6,7
12/09/94,01:40:00,53,35,40,34,0,55,54,85,59,0,9,6,7
12/09/94,01:45:00,55,28,35,32,0,66,63,85,58,0,9,6,7
12/09/94,01:50:00,51,27,37,30,0,67,64,85,57,0,8,7,8
12/09/94,01:55:00,54,36,38,28,0,63,60,85,56,0,8,7,8
12/09/94,02:00:00,52,33,34,30,0,62,59,85,48,0,9,6,7
12/09/94,02:05:00,52,35,38,30,0,63,60,85,48,0,9,7,7
12/09/94,02:10:00,47,35,38,25,0,65,61,85,48,0,9,7,7
12/09/94,02:15:00,47,29,37,29,0,73,66,85,50,0,9,6,7
12/09/94,02:20:00,53,33,39,27,0,54,52,85,50,0,9,6,7
12/09/94,02:25:00,50,33,39,32,0,69,68,85,50,0,8,6,7
12/09/94,02:30:00,50,28,39,27,0,58,55,85,48,0,8,7,7
12/09/94,02:35:00,51,31,40,29,0,67,66,85,57,0,8,6,7
12/09/94,02:40:00,45,34,40,31,0,67,65,83,57,0,8,7,7
12/09/94,02:45:00,48,33,36,29,0,70,68,83,57,0,8,7,7
12/09/94,02:50:00,50,36,44,34,0,48,46,87,57,0,8,7,7
12/09/94,02:55:00,55,36,43,33,0,45,44,87,61,0,8,7,8
12/09/94,03:00:00,56,27,40,37,0,46,44,84,61,0,8,7,8
12/09/94,03:05:00,51,30,42,33,0,65,62,84,61,0,9,7,7
12/09/94,03:10:00,49,38,35,35,0,53,51,83,59,0,9,7,7
12/09/94,03:15:00,53,41,37,35,0,49,47,84,59,0,9,6,7
12/09/94,03:20:00,52,28,40,36,0,51,49,84,59,0,8,6,7
12/09/94,03:25:00,50,37,38,32,0,57,54,84,59,0,8,6,7
12/09/94,03:30:00,44,37,38,35,0,63,60,84,59,0,8,6,7
12/09/94,03:35:00,51,31,36,38,0,51,49,84,61,0,8,6,7
12/09/94,03:40:00,52,32,41,39,0,49,46,84,61,0,8,7,7
12/09/94,03:45:00,52,38,38,35,0,43,41,84,52,0,8,7,7
12/09/94,03:50:00,53,31,42,35,0,45,43,84,50,0,8,7,7
12/09/94,03:55:00,50,30,38,29,0,72,69,84,50,0,8,7,7
12/09/94,04:00:00,53,34,32,32,0,52,51,84,59,0,8,7,8
12/09/94,04:05:00,52,26,39,33,0,67,65,84,59,0,9,7,8
12/09/94,04:10:00,48,35,35,29,0,63,60,84,59,0,9,7,8
12/09/94,04:15:00,50,34,36,36,0,60,57,84,61,0,9,7,8
12/09/94,04:20:00,53,31,41,35,0,44,42,87,61,0,9,7,7
12/09/94,04:25:00,52,28,43,35,0,46,44,84,61,0,8,7,7
12/09/94,04:30:00,56,35,41,36,0,51,48,84,59,0,8,7,7
12/09/94,04:35:00,54,31,41,37,0,55,51,84,59,0,8,7,7
12/09/94,04:40:00,54,29,43,35,0,44,42,84,50,0,8,7,7
12/09/94,04:45:00,53,29,36,35,0,45,43,84,50,0,8,7,7
12/09/94,04:50:00,52,34,41,34,0,42,41,84,52,0,8,7,7
12/09/94,04:55:00,53,26,42,36,0,53,47,84,52,0,8,7,7
12/09/94,05:00:00,54,27,42,34,0,55,52,83,52,0,8,7,7
12/09/94,05:05:00,53,34,43,35,0,42,41,84,52,0,8,7,8
12/09/94,05:10:00,54,31,45,33,0,45,43,85,54,0,9,7,8
12/09/94,05:15:00,54,28,43,35,0,58,56,85,54,0,9,6,8
12/09/94,05:20:00,54,36,41,36,0,39,36,85,54,0,9,7,8
12/09/94,05:25:00,57,32,40,38,0,36,34,88,63,0,9,7,7
12/09/94,05:30:00,57,29,46,41,0,37,34,87,63,0,9,7,7
12/09/94,05:35:00,57,30,51,33,0,34,32,88,59,0,9,7,7
12/09/94,05:40:00,54,31,48,37,0,39,38,88,59,0,9,7,7
12/09/94,05:45:00,54,26,46,35,0,44,42,88,57,0,9,7,7
12/09/94,05:50:00,51,31,43,34,0,46,44,87,57,0,8,7,7
12/09/94,05:55:00,50,30,36,38,0,49,46,87,57,0,9,7,7
12/09/94,06:00:00,51,28,36,32,0,51,49,87,57,0,9,7,7
12/09/94,06:05:00,53,31,40,35,0,55,52,87,57,0,8,7,7
12/09/94,06:10:00,50,29,45,33,0,60,58,84,59,0,8,7,8
12/09/94,06:15:00,56,26,38,34,0,65,62,84,59,0,9,7,8
12/09/94,06:20:00,48,34,41,32,0,56,57,84,58,0,9,7,8
12/09/94,06:25:00,53,31,42,34,0,44,42,85,56,0,9,7,7
12/09/94,06:30:00,45,30,37,36,0,41,34,85,57,0,9,7,7
12/09/94,06:35:00,58,33,41,39,0,35,34,85,61,0,9,7,7
12/09/94,06:40:00,57,29,43,37,0,37,36,85,57,0,8,7,7
12/09/94,06:45:00,60,29,48,40,0,40,38,85,61,0,8,7,7
12/09/94,06:50:00,55,33,45,36,0,40,37,85,59,0,8,7,7
12/09/94,06:55:00,57,36,45,37,0,32,30,84,59,0,8,7,7
12/09/94,07:00:00,58,36,43,39,0,27,25,84,67,0,8,7,7
12/09/94,07:05:00,61,32,50,42,0,25,24,85,65,0,8,6,7
12/09/94,07:10:00,57,30,45,37,0,23,22,84,65,0,8,6,7
12/09/94,07:15:00,54,33,48,41,0,25,24,84,65,0,9,7,8
12/09/94,07:20:00,57,31,48,42,0,27,25,84,65,0,9,7,8
12/09/94,07:25:00,59,36,50,39,0,25,24,85,65,0,9,7,8
12/09/94,07:30:00,58,34,50,30,0,32,32,85,63,0,9,7,7
12/09/94,07:35:00,55,27,48,37,0,42,41,85,67,0,8,7,7
12/09/94,07:40:00,58,34,48,39,0,32,30,85,65,0,8,7,7
12/09/94,07:45:00,58,37,50,38,0,32,31,85,65,0,9,7,7
12/09/94,07:50:00,54,35,47,42,0,26,25,84,66,0,8,7,7
12/09/94,07:55:00,60,32,50,40,0,27,25,84,65,0,8,7,7
12/09/94,08:00:00,56,32,46,35,0,23,22,85,61,0,8,7,7
12/09/94,08:05:00,59,31,52,38,0,21,20,85,61,0,8,6,7
12/09/94,08:10:00,56,35,49,34,0,20,19,85,64,0,8,7,7
12/09/94,08:15:00,59,32,51,37,0,21,20,85,63,0,9,7,7
12/09/94,08:20:00,56,32,51,39,0,21,20,85,63,0,9,7,8
12/09/94,08:25:00,55,30,50,40,0,22,21,85,67,0,9,7,8
12/09/94,08:30:00,58,35,52,38,0,22,21,85,67,0,9,7,8
12/09/94,08:35:00,59,32,47,39,0,22,21,84,61,0,10,7,7
12/09/94,08:40:00,59,32,47,42,0,21,20,84,61,0,9,7,7
12/09/94,08:45:00,53,35,49,38,0,21,21,84,61,0,9,6,7
12/09/94,08:50:00,53,31,50,32,0,21,20,85,61,0,9,6,7
12/09/94,08:55:00,56,35,47,41,0,22,21,85,61,0,9,6,7
12/09/94,09:00:00,57,35,51,39,0,22,21,85,63,0,9,6,7
12/09/94,09:05:00,49,33,47,30,0,22,21,85,63,0,9,6,7
12/09/94,09:10:00,34,28,37,27,0,22,21,86,63,0,9,7,7
12/09/94,09:15:00,28,22,34,15,0,23,22,86,61,0,10,7,7
12/09/94,09:20:00,2,0,3,0,0,21,20,87,62,0,10,12,7
12/09/94,09:25:00,10,8,22,18,0,19,18,90,62,0,23,26,23
12/09/94,09:30:00,4,0,9,1,0,18,17,91,62,0,19,23,16
12/09/94,09:35:00,0,0,2,3,0,18,17,91,62,0,29,24,30
12/09/94,09:40:00,0,0,6,0,0,16,16,92,64,0,33,34,26
12/09/94,09:45:00,0,0,0,0,0,15,15,93,64,0,34,40,31
12/09/94,09:50:00,0,0,0,0,0,16,15,93,64,0,41,41,38
12/09/94,09:55:00,0,0,3,0,0,16,15,93,64,0,34,42,33
12/09/94,10:00:00,11,0,0,0,0,15,14,93,62,0,39,36,28
12/09/94,10:05:00,4,5,17,6,0,15,14,93,62,0,36,33,41
12/09/94,10:10:00,0,4,5,4,0,14,14,93,50,0,38,40,33
12/09/94,10:15:00,4,9,7,13,0,15,14,93,51,0,36,28,26
12/09/94,10:20:00,0,0,0,0,0,16,15,93,48,0,30,34,32
12/09/94,10:25:00,21,7,11,7,0,16,15,93,48,0,39,40,38
12/09/94,10:30:00,15,0,6,0,0,15,14,93,50,0,34,29,34
12/09/94,10:35:00,38,21,23,30,0,15,15,94,50,0,37,38,26
12/09/94,10:40:00,2,0,2,2,0,16,15,93,50,0,33,26,26
12/09/94,10:45:00,4,0,5,16,0,14,13,94,49,0,34,32,37
12/09/94,10:50:00,0,0,0,0,0,13,12,94,49,0,36,40,33
12/09/94,10:55:00,0,0,5,14,0,12,12,94,49,0,30,27,27
12/09/94,11:00:00,0,0,0,0,0,13,12,94,49,0,39,34,38
12/09/94,11:05:00,0,0,0,0,0,12,12,94,49,0,33,42,38
12/09/94,11:10:00,20,18,18,19,0,11,11,93,51,0,38,28,29
12/09/94,11:15:00,20,8,9,0,0,10,10,93,51,0,28,37,29
12/09/94,11:20:00,10,0,10,2,0,10,10,94,51,0,39,33,36
12/09/94,11:25:00,13,0,12,8,0,10,10,93,51,0,32,31,36
12/09/94,11:30:00,19,16,21,18,0,10,10,93,49,0,40,39,30
12/09/94,11:35:00,0,0,8,6,0,10,10,93,49,0,33,27,27
12/09/94,11:40:00,12,12,11,10,0,10,10,93,49,0,34,35,29
12/09/94,11:45:00,6,1,0,20,0,10,10,93,49,0,36,36,36
12/09/94,11:50:00,32,5,21,17,0,10,10,93,48,0,28,30,36
12/09/94,11:55:00,21,2,8,24,0,10,10,93,50,0,32,36,29
12/09/94,12:00:00,6,2,0,12,0,11,10,93,51,0,34,28,27
12/09/94,12:05:00,8,4,10,3,0,10,10,93,67,0,30,36,30
12/09/94,12:10:00,5,6,2,3,0,11,10,93,50,0,38,36,38
12/09/94,12:15:00,0,0,3,3,0,11,10,94,49,0,32,31,36
12/09/94,12:20:00,8,0,0,2,0,10,10,94,49,0,41,39,30
12/09/94,12:25:00,0,0,0,1,0,10,10,94,49,0,32,39,37
12/09/94,12:30:00,17,0,0,5,0,10,10,94,41,0,41,33,41
12/09/94,12:35:00,0,0,0,2,0,10,10,94,51,0,33,42,33
12/09/94,12:40:00,9,0,4,12,0,11,10,94,51,0,42,31,31
12/09/94,12:45:00,7,0,4,11,0,11,10,94,51,0,32,35,42
12/09/94,12:50:00,13,0,1,6,0,11,10,91,51,0,42,43,35
12/09/94,12:55:00,6,9,1,14,0,11,10,91,49,0,33,28,29
12/09/94,13:00:00,7,0,3,19,0,11,11,91,49,0,41,38,34
12/09/94,13:05:00,8,9,11,5,0,12,11,91,49,0,36,39,39
12/09/94,13:10:00,1,0,0,10,0,12,11,91,49,0,43,31,34
12/09/94,13:15:00,0,0,0,0,0,11,11,91,49,0,36,41,30
12/09/94,13:20:00,0,0,0,5,0,12,12,91,51,0,41,36,38
12/09/94,13:25:00,0,0,6,5,0,13,12,91,51,0,37,33,40
12/09/94,13:30:00,0,0,0,0,0,13,13,91,51,0,44,42,32
12/09/94,13:35:00,0,0,0,0,0,14,13,91,49,0,35,40,38
12/09/94,13:40:00,0,0,0,0,0,14,14,91,49,0,43,33,41
12/09/94,13:45:00,0,0,0,0,0,14,14,91,49,0,33,43,31
12/09/94,13:50:00,0,0,0,0,0,14,14,91,49,0,41,34,40
12/09/94,13:55:00,0,0,0,0,0,15,14,91,49,0,37,36,40
12/09/94,14:00:00,0,0,0,0,0,15,14,91,51,0,38,43,33
12/09/94,14:05:00,0,0,0,0,0,15,14,91,51,0,44,32,36
12/09/94,14:10:00,0,0,0,0,0,16,15,91,51,0,43,35,41
12/09/94,14:15:00,0,0,0,0,0,16,15,91,49,0,35,40,36
12/09/94,14:20:00,0,0,0,0,0,15,15,91,49,0,41,43,32
12/09/94,14:25:00,0,0,0,0,0,15,15,91,49,0,33,31,39
12/09/94,14:30:00,0,0,0,0,0,15,15,91,49,0,40,37,40
12/09/94,14:35:00,0,0,0,0,0,15,14,91,48,0,43,41,34
12/09/94,14:40:00,0,0,0,0,0,15,14,91,50,0,35,42,31
12/09/94,14:45:00,0,0,0,0,0,14,14,91,50,0,42,32,42
12/09/94,14:50:00,0,0,0,0,0,15,14,91,51,0,33,39,39
12/09/94,14:55:00,0,0,0,0,0,15,14,91,50,0,40,42,33
12/09/94,15:00:00,0,0,0,0,0,19,19,91,49,0,37,31,34
12/09/94,15:05:00,0,0,0,0,0,15,14,91,49,0,39,36,42
12/09/94,15:10:00,0,0,0,0,0,13,12,91,49,0,41,41,37
12/09/94,15:15:00,0,0,0,0,0,25,24,91,49,0,38,32,32
12/09/94,15:20:00,0,0,0,0,0,26,25,90,49,0,42,36,36
12/09/94,15:25:00,0,0,0,0,0,27,25,90,49,0,34,40,40
12/09/94,15:30:00,0,0,0,0,0,27,26,90,43,0,41,34,36
12/09/94,15:35:00,0,0,0,0,0,24,24,90,43,0,34,34,32
12/09/94,15:40:00,0,0,0,0,0,28,26,90,43,0,40,39,33
12/09/94,15:45:00,0,0,0,0,0,28,27,90,41,0,33,34,40
12/09/94,15:50:00,0,0,0,0,0,28,27,90,41,0,40,34,37
12/09/94,15:55:00,0,0,0,0,0,28,27,90,41,0,33,40,33
12/09/94,16:00:00,0,0,0,0,0,24,23,90,41,0,40,33,30
12/09/94,16:05:00,0,0,0,0,0,29,28,90,41,0,33,33,37
12/09/94,16:10:00,0,0,0,0,0,27,26,90,43,0,40,39,38
12/09/94,16:15:00,0,0,0,0,0,28,27,90,43,0,34,30,34
12/09/94,16:20:00,0,0,0,0,0,28,27,90,43,0,41,35,29
12/09/94,16:25:00,0,0,0,0,0,29,27,90,43,0,34,40,35
12/09/94,16:30:00,0,0,0,0,0,29,28,90,41,0,41,29,39
12/09/94,16:35:00,0,0,0,0,0,30,29,90,41,0,35,35,35
12/09/94,16:40:00,0,0,0,0,0,29,28,90,41,0,40,39,29
12/09/94,16:45:00,0,0,0,0,0,30,29,90,41,0,36,30,34
12/09/94,16:50:00,0,0,0,0,0,32,30,90,41,0,38,37,39
12/09/94,16:55:00,0,0,0,0,0,33,32,90,43,0,36,37,36
12/09/94,17:00:00,0,0,0,0,0,35,33,90,43,0,37,30,30
12/09/94,17:05:00,0,0,0,0,0,35,33,90,43,0,37,37,31
12/09/94,17:10:00,0,0,0,0,0,34,33,90,41,0,34,36,37
12/09/94,17:15:00,0,0,0,0,0,35,33,90,41,0,37,31,37
12/09/94,17:20:00,0,0,0,0,0,35,33,90,45,0,31,38,32
12/09/94,17:25:00,0,0,0,0,0,36,34,90,45,0,39,35,28
12/09/94,17:30:00,0,0,0,0,0,38,37,90,45,0,31,31,36
12/09/94,17:35:00,0,0,0,0,0,41,39,90,47,0,39,38,37
12/09/94,17:40:00,0,0,0,0,0,40,38,90,47,0,33,31,33
12/09/94,17:45:00,0,0,0,0,0,41,39,90,47,0,40,33,28
12/09/94,17:50:00,0,0,0,0,0,45,43,89,43,0,33,39,35
12/09/94,17:55:00,0,0,0,0,0,46,44,90,41,0,38,27,33
12/09/94,18:00:00,0,0,0,0,0,47,45,90,41,0,35,35,27
12/09/94,18:05:00,0,0,0,0,0,48,46,89,41,0,29,32,36
12/09/94,18:10:00,0,0,0,0,0,49,47,90,48,0,38,30,29
12/09/94,18:15:00,0,0,0,0,0,49,47,90,50,0,30,38,33
12/09/94,18:20:00,0,0,0,0,0,50,48,90,50,0,39,29,31
12/09/94,18:25:00,0,0,0,0,0,50,48,90,50,0,32,33,34
12/09/94,18:30:00,0,0,0,0,0,50,48,90,50,0,37,38,31
12/09/94,18:35:00,0,0,0,0,0,50,48,90,48,0,34,28,35
12/09/94,18:40:00,0,0,0,0,0,50,48,87,48,0,31,35,23
12/09/94,18:45:00,0,0,0,0,0,46,44,87,49,0,37,35,31
12/09/94,18:50:00,0,0,0,0,0,48,46,87,49,0,31,29,32
12/09/94,18:55:00,0,0,0,0,0,51,49,87,53,0,39,37,31
12/09/94,19:00:00,0,0,0,0,0,53,50,87,55,0,33,30,31
12/09/94,19:05:00,0,0,0,0,0,53,51,87,54,0,37,33,31
12/09/94,19:10:00,0,0,0,0,0,54,51,87,54,0,35,38,29
12/09/94,19:15:00,0,0,0,0,0,54,52,87,54,0,30,27,37
12/09/94,19:20:00,0,0,0,0,0,54,52,86,53,0,37,34,28
12/09/94,19:25:00,0,0,0,0,0,54,52,87,53,0,30,35,29
12/09/94,19:30:00,0,0,0,0,0,55,52,86,53,0,39,29,37
12/09/94,19:35:00,0,0,0,0,0,55,52,87,53,0,32,36,33
12/09/94,19:40:00,0,0,0,0,0,55,52,87,53,0,33,31,27
12/09/94,19:45:00,0,0,0,0,0,55,53,87,52,0,36,31,32
12/09/94,19:50:00,0,0,0,0,0,55,53,87,63,0,29,38,36
12/09/94,19:55:00,0,0,0,0,97,55,146,86,62,0,34,27,25
12/09/94,20:00:00,0,0,0,0,97,55,146,85,62,0,21,24,22
12/09/94,20:05:00,0,0,0,0,97,55,146,85,62,0,26,29,20
12/09/94,20:10:00,0,0,0,0,97,56,147,84,60,0,18,21,19
12/09/94,20:15:00,0,0,0,0,98,56,148,84,60,0,22,17,14
12/09/94,20:20:00,0,0,0,0,99,57,149,84,60,0,21,26,20
12/09/94,20:25:00,0,0,0,0,100,57,151,84,60,0,16,20,17
12/09/94,20:30:00,0,0,0,0,100,57,152,84,60,0,14,15,13
12/09/94,20:35:00,0,0,0,0,101,58,152,84,62,0,24,17,11
12/09/94,20:40:00,0,0,0,0,102,58,154,84,62,0,18,25,10
12/09/94,20:45:00,0,0,0,0,103,59,156,84,62,0,14,18,9
12/09/94,20:50:00,0,0,0,0,101,58,152,84,62,0,13,14,9
12/09/94,20:55:00,,,,,,,,,,,,,
12/09/94,21:00:00,0,0,0,0,102,58,154,83,60,0,19,22,15
12/09/94,21:05:00,0,0,0,0,106,60,160,84,60,0,15,17,12
12/09/94,21:10:00,0,0,0,0,107,61,162,83,60,0,13,13,11
12/09/94,21:15:00,0,0,0,0,109,62,164,83,60,0,12,11,10
12/09/94,21:20:00,0,0,0,0,111,63,167,83,62,0,12,10,9
12/09/94,21:25:00,0,0,0,0,113,64,170,83,62,0,11,17,9
12/09/94,21:30:00,0,0,0,0,114,65,172,83,58,0,10,20,9
12/09/94,21:35:00,0,0,0,0,114,65,172,83,58,0,11,15,9
12/09/94,21:40:00,3,0,7,0,115,65,173,83,56,0,10,12,9
12/09/94,21:45:00,0,0,0,0,114,65,172,82,56,0,10,10,8
12/09/94,21:50:00,0,0,0,0,116,66,175,83,56,0,10,9,9
12/09/94,21:55:00,0,0,0,0,116,66,175,82,56,0,10,9,8
12/09/94,22:00:00,0,0,0,0,117,67,177,83,58,0,10,9,9
12/09/94,22:05:00,0,0,0,0,118,67,178,82,60,0,10,8,9
12/09/94,22:10:00,0,0,0,0,118,68,178,82,61,0,10,8,9
12/09/94,22:15:00,0,0,0,0,118,68,178,82,61,0,10,8,9
12/09/94,22:20:00,0,0,0,0,120,68,180,83,50,0,9,8,8
12/09/94,22:25:00,0,0,0,0,120,68,181,82,50,0,10,8,8
12/09/94,22:30:00,0,0,0,0,121,69,182,82,56,0,10,8,8
12/09/94,22:35:00,0,0,0,0,121,69,182,82,56,0,9,8,8
12/09/94,22:40:00,0,0,0,0,114,68,173,85,56,0,9,8,8
12/09/94,22:45:00,0,0,0,0,120,69,181,85,56,0,9,8,8
12/09/94,22:50:00,0,0,0,0,120,69,182,86,56,0,9,8,8
12/09/94,22:55:00,0,0,0,0,121,70,182,85,56,0,10,8,8
12/09/94,23:00:00,0,0,0,0,121,70,183,84,58,0,9,8,8
12/09/94,23:05:00,0,0,0,0,122,70,184,85,58,0,11,8,8
12/09/94,23:10:00,0,0,0,0,122,70,185,85,58,0,11,8,9
12/09/94,23:15:00,0,0,0,0,123,71,186,85,58,0,10,8,8
12/09/94,23:20:00,0,0,0,0,124,71,187,84,56,0,10,8,8
12/09/94,23:25:00,0,0,0,0,124,71,187,85,56,0,10,8,8
12/09/94,23:30:00,0,0,3,0,125,72,188,84,56,0,10,8,8
12/09/94,23:35:00,0,0,0,0,126,72,189,84,56,0,10,8,8
12/09/94,23:40:00,0,0,1,0,126,72,190,84,57,0,10,8,8
12/09/94,23:45:00,0,0,0,0,126,72,190,84,57,0,10,8,8
12/09/94,23:50:00,0,0,3,0,127,72,191,85,81,0,10,8,8
12/09/94,23:55:00,0,0,0,0,127,72,191,85,59,0,10,8,8
12/10/94,00:00:00,0,0,0,0,127,73,191,85,59,0,10,8,8
